{"data":{"norad_id":56552,"intl_designator":"2023-065BB","name":"STARLINK-5802","alt_names":[],"object_type":"PAYLOAD","status":"ACTIVE","operator":null,"country":"US","launch_date":"2023-05-14","launch_site_code":"AFETR","launch_vehicle":null,"mission":null,"orbit_class":"UNKNOWN","rcs_meters":null,"size_class":null,"mass_kg":null,"dimensions":null,"purposes":["comms"],"wikipedia_slug":null,"has_3d_model":false,"image_url":null,"decayed_at":null,"tle_current":{"epoch":"2026-09-19T06:09:15.712704Z","epoch_age_seconds":222246,"freshness":"STALE","line1":"1 56552U 23065BB  26262.25643186  .00000866  00000+0  40988-4 0  9994","line2":"2 56552  43.0035 210.5926 0001670 271.6183  88.4478 15.27576958186073","mean_motion":15.27576958,"eccentricity":0.000167,"inclination_deg":43.0035,"raan_deg":210.5926,"arg_perigee_deg":271.6183,"mean_anomaly_deg":88.4478,"bstar":4.0988e-5,"rev_number":18607,"period_min":94.266936435421,"perigee_km":481.9123852979,"apogee_km":484.20402449634,"semimajor_km":6861.1952048971,"source":"CELESTRAK","updated_at":"2026-09-21T09:00:33.479184Z"}}}